Location: *
(33.8649°S, 62.1526°E)
Time: 11:39:17
(UTC+00:00)

Meteor 2-20 Rocket - Pass Details

Date: 17 January 2021
Orbit: 940 x 960 km, 82.5° (Epoch: 02 March)

Event Time Altitude Azimuth Distance (km) Brightness Sun altitude
Exits shadow 22:37:05 41° 9° (N) 1,347 4.9 -24.2°
Maximum altitude 22:39:21 77° 85° (E) 977 4.5 -23.9°
Drops below altitude 10° 22:45:30 10° 170° (S) 2,689 7.6 -23.1°
Sets 22:48:01 0° 171° (S) 3,643 8.4 -22.7°
